Year,Month,Day,Hour,Minute,Value (Times are PST for windspeed in km/hr)
2014,07,18,00,00,35.10
2014,07,18,00,01,34.90
2014,07,18,00,02,33.50
2014,07,18,00,03,32.40
2014,07,18,00,04,31.50
2014,07,18,00,05,30.60
2014,07,18,00,06,31.30
2014,07,18,00,07,33.60
2014,07,18,00,08,34.60
2014,07,18,00,09,35.40
2014,07,18,00,10,34.90
2014,07,18,00,11,35.10
2014,07,18,00,12,34.80
2014,07,18,00,13,34.90
2014,07,18,00,14,34.80
2014,07,18,00,15,34.10
2014,07,18,00,16,31.40
2014,07,18,00,17,32.20
2014,07,18,00,18,32.50
2014,07,18,00,19,34.30
2014,07,18,00,20,33.20
2014,07,18,00,21,31.60
2014,07,18,00,22,31.90
2014,07,18,00,23,29.70
2014,07,18,00,24,29.00
2014,07,18,00,25,31.80
2014,07,18,00,26,33.20
2014,07,18,00,27,33.70
2014,07,18,00,28,32.70
2014,07,18,00,29,32.50
2014,07,18,00,30,32.80
2014,07,18,00,31,33.20
2014,07,18,00,32,32.30
2014,07,18,00,33,32.70
2014,07,18,00,34,32.10
2014,07,18,00,35,31.90
2014,07,18,00,36,33.70
2014,07,18,00,37,34.60
2014,07,18,00,38,34.00
2014,07,18,00,39,34.00
2014,07,18,00,40,33.40
2014,07,18,00,41,33.00
2014,07,18,00,42,31.40
2014,07,18,00,43,32.40
2014,07,18,00,44,32.80
2014,07,18,00,45,31.20
2014,07,18,00,46,31.90
2014,07,18,00,47,32.30
2014,07,18,00,48,32.60
2014,07,18,00,49,32.30
2014,07,18,00,50,32.10
2014,07,18,00,51,31.10
2014,07,18,00,52,30.60
2014,07,18,00,53,30.70
2014,07,18,00,54,30.30
2014,07,18,00,55,29.90
2014,07,18,00,56,29.00
2014,07,18,00,57,28.10
2014,07,18,00,58,27.00
2014,07,18,00,59,27.80
2014,07,18,01,00,27.80
2014,07,18,01,01,26.70
2014,07,18,01,02,27.60
2014,07,18,01,03,28.10
2014,07,18,01,04,29.20
2014,07,18,01,05,29.40
2014,07,18,01,06,30.30
2014,07,18,01,07,30.70
2014,07,18,01,08,31.40
2014,07,18,01,09,31.20
2014,07,18,01,10,31.30
2014,07,18,01,11,31.00
2014,07,18,01,12,30.70
2014,07,18,01,13,30.30
2014,07,18,01,14,30.30
2014,07,18,01,15,30.20
2014,07,18,01,16,29.00
2014,07,18,01,17,27.50
2014,07,18,01,18,27.00
2014,07,18,01,19,27.40
2014,07,18,01,20,27.50
2014,07,18,01,21,25.90
2014,07,18,01,22,26.20
2014,07,18,01,23,25.60
2014,07,18,01,24,24.20
2014,07,18,01,25,24.50
2014,07,18,01,26,24.10
2014,07,18,01,27,24.50
2014,07,18,01,28,24.20
2014,07,18,01,29,24.00
2014,07,18,01,30,23.40
2014,07,18,01,31,24.10
2014,07,18,01,32,24.00
2014,07,18,01,33,22.60
2014,07,18,01,34,21.00
2014,07,18,01,35,20.30
2014,07,18,01,36,22.30
2014,07,18,01,37,22.10
2014,07,18,01,38,18.90
2014,07,18,01,39,17.10
2014,07,18,01,40,13.60
2014,07,18,01,41,7.30
2014,07,18,01,42,6.50
2014,07,18,01,43,6.80
2014,07,18,01,44,8.40
2014,07,18,01,45,14.20
2014,07,18,01,46,18.20
2014,07,18,01,47,19.50
2014,07,18,01,48,17.90
2014,07,18,01,49,15.00
2014,07,18,01,50,11.70
2014,07,18,01,51,10.50
2014,07,18,01,52,9.60
2014,07,18,01,53,9.60
2014,07,18,01,54,9.60
2014,07,18,01,55,9.60
2014,07,18,01,56,9.80
2014,07,18,01,57,12.10
2014,07,18,01,58,10.20
2014,07,18,01,59,10.30
2014,07,18,02,00,10.10
2014,07,18,02,01,10.20
2014,07,18,02,02,9.20
2014,07,18,02,03,9.20
2014,07,18,02,04,8.30
2014,07,18,02,05,7.90
2014,07,18,02,06,7.80
2014,07,18,02,07,8.60
2014,07,18,02,08,10.00
2014,07,18,02,09,10.30
2014,07,18,02,10,11.00
2014,07,18,02,11,10.40
2014,07,18,02,12,10.10
2014,07,18,02,13,10.20
2014,07,18,02,14,10.40
2014,07,18,02,15,9.70
2014,07,18,02,16,10.40
2014,07,18,02,17,10.00
2014,07,18,02,18,9.60
2014,07,18,02,19,9.20
2014,07,18,02,20,7.80
2014,07,18,02,21,7.50
2014,07,18,02,22,5.80
2014,07,18,02,23,4.40
2014,07,18,02,24,3.50
2014,07,18,02,25,3.30
2014,07,18,02,26,4.50
2014,07,18,02,27,4.30
2014,07,18,02,28,3.70
2014,07,18,02,29,3.60
2014,07,18,02,30,2.60
2014,07,18,02,31,1.10
2014,07,18,02,32,0.00
2014,07,18,02,33,0.00
2014,07,18,02,34,0.00
2014,07,18,02,35,0.00
2014,07,18,02,36,0.00
2014,07,18,02,37,0.00
2014,07,18,02,38,0.00
2014,07,18,02,39,0.00
2014,07,18,02,40,0.00
2014,07,18,02,41,0.00
2014,07,18,02,42,0.00
2014,07,18,02,43,0.00
2014,07,18,02,44,2.10
2014,07,18,02,45,3.60
2014,07,18,02,46,3.70
2014,07,18,02,47,3.30
2014,07,18,02,48,2.50
2014,07,18,02,49,3.30
2014,07,18,02,50,3.60
2014,07,18,02,51,4.70
2014,07,18,02,52,4.30
2014,07,18,02,53,3.40
2014,07,18,02,54,4.00
2014,07,18,02,55,5.90
2014,07,18,02,56,4.30
2014,07,18,02,57,3.40
2014,07,18,02,58,2.00
2014,07,18,02,59,0.20
2014,07,18,03,00,0.00
2014,07,18,03,01,0.00
2014,07,18,03,02,0.00
2014,07,18,03,03,0.00
2014,07,18,03,04,0.00
2014,07,18,03,05,0.00
2014,07,18,03,06,0.00
2014,07,18,03,07,3.70
2014,07,18,03,08,3.70
2014,07,18,03,09,3.80
2014,07,18,03,10,2.60
2014,07,18,03,11,2.00
2014,07,18,03,12,3.50
2014,07,18,03,13,3.20
2014,07,18,03,14,3.90
2014,07,18,03,15,5.00
2014,07,18,03,16,6.00
2014,07,18,03,17,6.90
2014,07,18,03,18,6.10
2014,07,18,03,19,5.60
2014,07,18,03,20,6.00
2014,07,18,03,21,6.10
2014,07,18,03,22,6.60
2014,07,18,03,23,6.70
2014,07,18,03,24,7.60
2014,07,18,03,25,8.10
2014,07,18,03,26,8.50
2014,07,18,03,27,9.30
2014,07,18,03,28,9.50
2014,07,18,03,29,9.20
2014,07,18,03,30,9.60
2014,07,18,03,31,9.70
2014,07,18,03,32,9.90
2014,07,18,03,33,9.00
2014,07,18,03,34,8.50
2014,07,18,03,35,7.90
2014,07,18,03,36,8.50
2014,07,18,03,37,9.10
2014,07,18,03,38,9.00
2014,07,18,03,39,8.40
2014,07,18,03,40,10.00
2014,07,18,03,41,9.60
2014,07,18,03,42,8.90
2014,07,18,03,43,8.30
2014,07,18,03,44,8.10
2014,07,18,03,45,7.60
2014,07,18,03,46,7.70
2014,07,18,03,47,7.70
2014,07,18,03,48,8.40
2014,07,18,03,49,8.60
2014,07,18,03,50,8.40
2014,07,18,03,51,8.80
2014,07,18,03,52,8.80
2014,07,18,03,53,8.80
2014,07,18,03,54,8.40
2014,07,18,03,55,7.40
2014,07,18,03,56,4.70
2014,07,18,03,57,5.40
2014,07,18,03,58,5.20
2014,07,18,03,59,3.70
2014,07,18,04,00,3.10
2014,07,18,04,01,4.10
2014,07,18,04,02,4.80
2014,07,18,04,03,6.10
2014,07,18,04,04,5.10
2014,07,18,04,05,5.70
2014,07,18,04,06,5.10
2014,07,18,04,07,4.70
2014,07,18,04,08,3.60
2014,07,18,04,09,4.90
2014,07,18,04,10,5.60
2014,07,18,04,11,4.70
2014,07,18,04,12,5.00
2014,07,18,04,13,4.70
2014,07,18,04,14,4.90
2014,07,18,04,15,5.60
2014,07,18,04,16,6.50
2014,07,18,04,17,6.20
2014,07,18,04,18,6.40
2014,07,18,04,19,6.40
2014,07,18,04,20,7.00
2014,07,18,04,21,6.00
2014,07,18,04,22,6.00
2014,07,18,04,23,6.10
2014,07,18,04,24,5.70
2014,07,18,04,25,6.60
2014,07,18,04,26,6.20
2014,07,18,04,27,6.90
2014,07,18,04,28,6.50
2014,07,18,04,29,6.30
2014,07,18,04,30,5.80
2014,07,18,04,31,7.60
2014,07,18,04,32,9.30
2014,07,18,04,33,9.50
2014,07,18,04,34,8.00
2014,07,18,04,35,8.90
2014,07,18,04,36,8.30
2014,07,18,04,37,7.70
2014,07,18,04,38,7.80
2014,07,18,04,39,8.30
2014,07,18,04,40,7.30
2014,07,18,04,41,7.70
2014,07,18,04,42,6.70
2014,07,18,04,43,6.40
2014,07,18,04,44,6.20
2014,07,18,04,45,5.40
2014,07,18,04,46,5.80
2014,07,18,04,47,6.20
2014,07,18,04,48,5.50
2014,07,18,04,49,6.40
2014,07,18,04,50,5.70
2014,07,18,04,51,5.80
2014,07,18,04,52,5.70
2014,07,18,04,53,4.50
2014,07,18,04,54,2.60
2014,07,18,04,55,2.80
2014,07,18,04,56,1.50
2014,07,18,04,57,0.00
2014,07,18,04,58,0.80
2014,07,18,04,59,1.80
2014,07,18,05,00,0.20
2014,07,18,05,01,1.70
2014,07,18,05,02,0.40
2014,07,18,05,03,1.90
2014,07,18,05,04,0.10
2014,07,18,05,05,0.00
2014,07,18,05,06,0.00
2014,07,18,05,07,0.00
2014,07,18,05,08,0.00
2014,07,18,05,09,0.00
2014,07,18,05,10,0.00
2014,07,18,05,11,0.00
2014,07,18,05,12,0.00
2014,07,18,05,13,0.00
2014,07,18,05,14,0.00
2014,07,18,05,15,0.00
2014,07,18,05,16,0.00
2014,07,18,05,17,0.00
2014,07,18,05,18,0.00
2014,07,18,05,19,0.00
2014,07,18,05,20,0.00
2014,07,18,05,21,0.00
2014,07,18,05,22,1.30
2014,07,18,05,23,3.00
2014,07,18,05,24,1.10
2014,07,18,05,25,1.50
2014,07,18,05,26,0.50
2014,07,18,05,27,0.00
2014,07,18,05,28,0.00
2014,07,18,05,29,0.00
2014,07,18,05,30,0.00
2014,07,18,05,31,0.00
2014,07,18,05,32,0.00
2014,07,18,05,33,0.00
2014,07,18,05,34,0.00
2014,07,18,05,35,0.00
2014,07,18,05,36,0.00
2014,07,18,05,37,0.00
2014,07,18,05,38,0.00
2014,07,18,05,39,0.00
2014,07,18,05,40,0.00
2014,07,18,05,41,0.00
2014,07,18,05,42,0.00
2014,07,18,05,43,0.00
2014,07,18,05,44,0.00
2014,07,18,05,45,0.00
2014,07,18,05,46,0.00
2014,07,18,05,47,0.00
2014,07,18,05,48,0.00
2014,07,18,05,49,0.00
2014,07,18,05,50,1.80
2014,07,18,05,51,3.10
2014,07,18,05,52,3.70
2014,07,18,05,53,3.90
2014,07,18,05,54,4.60
2014,07,18,05,55,4.00
2014,07,18,05,56,4.20
2014,07,18,05,57,5.60
2014,07,18,05,58,5.20
2014,07,18,05,59,5.40
2014,07,18,06,00,4.70
2014,07,18,06,01,3.50
2014,07,18,06,02,3.40
2014,07,18,06,03,4.30
2014,07,18,06,04,4.50
2014,07,18,06,05,5.00
2014,07,18,06,06,5.10
2014,07,18,06,07,5.10
2014,07,18,06,08,5.10
2014,07,18,06,09,5.60
2014,07,18,06,10,5.90
2014,07,18,06,11,6.00
2014,07,18,06,12,7.20
2014,07,18,06,13,8.00
2014,07,18,06,14,8.00
2014,07,18,06,15,8.30
2014,07,18,06,16,8.00
2014,07,18,06,17,8.60
2014,07,18,06,18,8.90
2014,07,18,06,19,8.70
2014,07,18,06,20,9.40
2014,07,18,06,21,9.60
2014,07,18,06,22,10.30
2014,07,18,06,23,10.40
2014,07,18,06,24,10.80
2014,07,18,06,25,10.70
2014,07,18,06,26,11.20
2014,07,18,06,27,11.40
2014,07,18,06,28,12.30
2014,07,18,06,29,12.20
2014,07,18,06,30,12.60
2014,07,18,06,31,13.50
2014,07,18,06,32,14.10
2014,07,18,06,33,15.00
2014,07,18,06,34,16.30
2014,07,18,06,35,17.00
2014,07,18,06,36,17.30
2014,07,18,06,37,17.50
2014,07,18,06,38,17.60
2014,07,18,06,39,17.90
2014,07,18,06,40,18.00
2014,07,18,06,41,18.20
2014,07,18,06,42,18.50
2014,07,18,06,43,19.90
2014,07,18,06,44,19.60
2014,07,18,06,45,20.40
2014,07,18,06,46,20.30
2014,07,18,06,47,21.40
2014,07,18,06,48,22.30
2014,07,18,06,49,23.20
2014,07,18,06,50,23.20
2014,07,18,06,51,24.40
2014,07,18,06,52,24.30
2014,07,18,06,53,24.70
2014,07,18,06,54,25.30
2014,07,18,06,55,25.20
2014,07,18,06,56,25.00
2014,07,18,06,57,25.30
2014,07,18,06,58,24.90
2014,07,18,06,59,25.00
2014,07,18,07,00,25.40
2014,07,18,07,01,25.70
2014,07,18,07,02,25.70
2014,07,18,07,03,25.70
2014,07,18,07,04,25.70
2014,07,18,07,05,25.70
2014,07,18,07,06,26.20
2014,07,18,07,07,26.40
2014,07,18,07,08,26.60
2014,07,18,07,09,25.50
2014,07,18,07,10,24.50
2014,07,18,07,11,24.00
2014,07,18,07,12,23.60
2014,07,18,07,13,24.20
2014,07,18,07,14,24.20
2014,07,18,07,15,26.30
2014,07,18,07,16,26.00
2014,07,18,07,17,25.80
2014,07,18,07,18,26.40
2014,07,18,07,19,25.30
2014,07,18,07,20,25.40
2014,07,18,07,21,25.40
2014,07,18,07,22,26.60
2014,07,18,07,23,26.80
2014,07,18,07,24,27.40
2014,07,18,07,25,27.40
2014,07,18,07,26,27.50
2014,07,18,07,27,28.10
2014,07,18,07,28,27.30
2014,07,18,07,29,27.80
2014,07,18,07,30,27.30
2014,07,18,07,31,28.10
2014,07,18,07,32,26.90
2014,07,18,07,33,27.40
2014,07,18,07,34,27.30
2014,07,18,07,35,27.00
2014,07,18,07,36,26.70
2014,07,18,07,37,26.60
2014,07,18,07,38,27.40
2014,07,18,07,39,27.00
2014,07,18,07,40,27.20
2014,07,18,07,41,26.60
2014,07,18,07,42,27.00
2014,07,18,07,43,25.80
2014,07,18,07,44,25.70
2014,07,18,07,45,25.50
2014,07,18,07,46,25.70
2014,07,18,07,47,25.30
2014,07,18,07,48,24.70
2014,07,18,07,49,25.50
2014,07,18,07,50,25.10
2014,07,18,07,51,25.30
2014,07,18,07,52,25.50
2014,07,18,07,53,26.40
2014,07,18,07,54,26.40
2014,07,18,07,55,27.00
2014,07,18,07,56,26.90
2014,07,18,07,57,27.20
2014,07,18,07,58,25.70
2014,07,18,07,59,25.80
2014,07,18,08,00,24.80
2014,07,18,08,01,24.50
2014,07,18,08,02,24.40
2014,07,18,08,03,24.10
2014,07,18,08,04,23.50
2014,07,18,08,05,23.60
2014,07,18,08,06,23.40
2014,07,18,08,07,23.80
2014,07,18,08,08,23.90
2014,07,18,08,09,24.20
2014,07,18,08,10,24.50
2014,07,18,08,11,24.90
2014,07,18,08,12,24.00
2014,07,18,08,13,24.20
2014,07,18,08,14,24.20
2014,07,18,08,15,23.40
2014,07,18,08,16,23.60
2014,07,18,08,17,24.70
2014,07,18,08,18,23.40
2014,07,18,08,19,22.90
2014,07,18,08,20,22.20
2014,07,18,08,21,22.20
2014,07,18,08,22,22.50
2014,07,18,08,23,21.80
2014,07,18,08,24,20.70
2014,07,18,08,25,21.10
2014,07,18,08,26,20.40
2014,07,18,08,27,20.10
2014,07,18,08,28,20.20
2014,07,18,08,29,20.30
2014,07,18,08,30,20.00
2014,07,18,08,31,19.80
2014,07,18,08,32,18.60
2014,07,18,08,33,19.20
2014,07,18,08,34,19.60
2014,07,18,08,35,19.00
2014,07,18,08,36,20.10
2014,07,18,08,37,18.60
2014,07,18,08,38,18.80
2014,07,18,08,39,20.60
2014,07,18,08,40,18.30
2014,07,18,08,41,20.50
2014,07,18,08,42,19.50
2014,07,18,08,43,17.30
2014,07,18,08,44,18.20
2014,07,18,08,45,17.40
2014,07,18,08,46,16.20
2014,07,18,08,47,15.80
2014,07,18,08,48,15.90
2014,07,18,08,49,16.30
2014,07,18,08,50,14.60
2014,07,18,08,51,16.10
2014,07,18,08,52,18.60
2014,07,18,08,53,19.90
2014,07,18,08,54,18.70
2014,07,18,08,55,20.60
2014,07,18,08,56,19.00
2014,07,18,08,57,18.60
2014,07,18,08,58,19.60
2014,07,18,08,59,19.50
2014,07,18,09,00,18.80
2014,07,18,09,01,18.80
2014,07,18,09,02,19.50
2014,07,18,09,03,18.40
2014,07,18,09,04,18.20
2014,07,18,09,05,17.20
2014,07,18,09,06,17.40
2014,07,18,09,07,17.10
2014,07,18,09,08,16.40
2014,07,18,09,09,16.30
2014,07,18,09,10,16.40
2014,07,18,09,11,16.30
2014,07,18,09,12,16.00
2014,07,18,09,13,14.30
2014,07,18,09,14,13.80
2014,07,18,09,15,13.30
2014,07,18,09,16,11.70
2014,07,18,09,17,10.40
2014,07,18,09,18,8.10
2014,07,18,09,19,6.10
2014,07,18,09,20,4.80
2014,07,18,09,21,6.00
2014,07,18,09,22,7.70
2014,07,18,09,23,9.30
2014,07,18,09,24,8.70
2014,07,18,09,25,7.30
2014,07,18,09,26,7.40
2014,07,18,09,27,8.70
2014,07,18,09,28,9.40
2014,07,18,09,29,10.00
2014,07,18,09,30,10.80
2014,07,18,09,31,11.00
2014,07,18,09,32,12.10
2014,07,18,09,33,13.50
2014,07,18,09,34,14.60
2014,07,18,09,35,15.10
2014,07,18,09,36,16.20
2014,07,18,09,37,16.70
2014,07,18,09,38,18.90
2014,07,18,09,39,18.70
2014,07,18,09,40,18.90
2014,07,18,09,41,19.10
2014,07,18,09,42,18.70
2014,07,18,09,43,18.40
2014,07,18,09,44,19.10
2014,07,18,09,45,18.70
2014,07,18,09,46,18.30
2014,07,18,09,47,17.00
2014,07,18,09,48,16.40
2014,07,18,09,49,17.00
2014,07,18,09,50,16.80
2014,07,18,09,51,17.90
2014,07,18,09,52,17.60
2014,07,18,09,53,18.90
2014,07,18,09,54,19.80
2014,07,18,09,55,21.20
2014,07,18,09,56,21.50
2014,07,18,09,57,22.50
2014,07,18,09,58,23.80
2014,07,18,09,59,23.40
2014,07,18,10,00,23.30
2014,07,18,10,01,23.60
2014,07,18,10,02,23.30
2014,07,18,10,03,22.70
2014,07,18,10,04,22.50
2014,07,18,10,05,21.40
2014,07,18,10,06,21.50
2014,07,18,10,07,21.10
2014,07,18,10,08,20.30
2014,07,18,10,09,19.90
2014,07,18,10,10,20.30
2014,07,18,10,11,19.90
2014,07,18,10,12,20.00
2014,07,18,10,13,19.80
2014,07,18,10,14,18.60
2014,07,18,10,15,18.50
2014,07,18,10,16,18.40
2014,07,18,10,17,18.00
2014,07,18,10,18,17.90
2014,07,18,10,19,17.20
2014,07,18,10,20,17.10
2014,07,18,10,21,17.30
2014,07,18,10,22,16.50
2014,07,18,10,23,16.40
2014,07,18,10,24,17.50
2014,07,18,10,25,16.40
2014,07,18,10,26,16.20
2014,07,18,10,27,16.50
2014,07,18,10,28,17.10
2014,07,18,10,29,17.20
2014,07,18,10,30,17.50
2014,07,18,10,31,17.90
2014,07,18,10,32,17.10
2014,07,18,10,33,16.50
2014,07,18,10,34,15.80
2014,07,18,10,35,15.90
2014,07,18,10,36,16.30
2014,07,18,10,37,15.70
2014,07,18,10,38,15.20
2014,07,18,10,39,15.40
2014,07,18,10,40,15.30
2014,07,18,10,41,15.80
2014,07,18,10,42,15.90
2014,07,18,10,43,17.00
2014,07,18,10,44,17.30
2014,07,18,10,45,17.20
2014,07,18,10,46,17.70
2014,07,18,10,47,17.90
2014,07,18,10,48,17.40
2014,07,18,10,49,16.70
2014,07,18,10,50,16.20
2014,07,18,10,51,15.50
2014,07,18,10,52,14.40
2014,07,18,10,53,13.20
2014,07,18,10,54,13.60
2014,07,18,10,55,14.70
2014,07,18,10,56,13.10
2014,07,18,10,57,13.00
2014,07,18,10,58,12.90
2014,07,18,10,59,13.50
2014,07,18,11,00,13.50
2014,07,18,11,01,13.30
2014,07,18,11,02,13.40
2014,07,18,11,03,12.60
2014,07,18,11,04,16.30
2014,07,18,11,05,12.80
2014,07,18,11,06,12.40
2014,07,18,11,07,11.50
2014,07,18,11,08,13.50
2014,07,18,11,09,13.70
2014,07,18,11,10,12.30
2014,07,18,11,11,12.50
2014,07,18,11,12,12.50
2014,07,18,11,13,13.00
2014,07,18,11,14,13.60
2014,07,18,11,15,12.30
2014,07,18,11,16,11.70
2014,07,18,11,17,11.80
2014,07,18,11,18,12.80
2014,07,18,11,19,12.30
2014,07,18,11,20,12.30
2014,07,18,11,21,11.50
2014,07,18,11,22,11.70
2014,07,18,11,23,11.50
2014,07,18,11,24,11.80
2014,07,18,11,25,12.00
2014,07,18,11,26,12.30
2014,07,18,11,27,12.70
2014,07,18,11,28,13.20
2014,07,18,11,29,13.30
2014,07,18,11,30,15.90
2014,07,18,11,31,15.80
2014,07,18,11,32,14.00
2014,07,18,11,33,14.60
2014,07,18,11,34,15.40
2014,07,18,11,35,18.00
2014,07,18,11,36,18.50
2014,07,18,11,37,18.30
2014,07,18,11,38,18.10
2014,07,18,11,39,17.90
2014,07,18,11,40,17.40
2014,07,18,11,41,17.70
2014,07,18,11,42,17.10
2014,07,18,11,43,17.10
2014,07,18,11,44,16.20
2014,07,18,11,45,16.80
2014,07,18,11,46,17.00
2014,07,18,11,47,17.60
2014,07,18,11,48,17.50
2014,07,18,11,49,17.70
2014,07,18,11,50,17.50
2014,07,18,11,51,18.10
2014,07,18,11,52,18.60
2014,07,18,11,53,19.10
2014,07,18,11,54,19.20
2014,07,18,11,55,15.40
2014,07,18,11,56,15.60
2014,07,18,11,57,14.40
2014,07,18,11,58,13.80
2014,07,18,11,59,14.20
2014,07,18,12,00,13.90
2014,07,18,12,01,15.70
2014,07,18,12,02,18.10
2014,07,18,12,03,19.10
2014,07,18,12,04,19.00
2014,07,18,12,05,18.40
2014,07,18,12,06,18.50
2014,07,18,12,07,18.10
2014,07,18,12,08,17.00
2014,07,18,12,09,17.20
2014,07,18,12,10,17.50
2014,07,18,12,11,17.30
2014,07,18,12,12,17.20
2014,07,18,12,13,17.30
2014,07,18,12,14,16.80
2014,07,18,12,15,16.40
2014,07,18,12,16,16.00
2014,07,18,12,17,15.60
2014,07,18,12,18,15.20
2014,07,18,12,19,14.50
2014,07,18,12,20,13.50
2014,07,18,12,21,12.60
2014,07,18,12,22,12.70
2014,07,18,12,23,13.40
2014,07,18,12,24,14.60
2014,07,18,12,25,15.70
2014,07,18,12,26,15.40
2014,07,18,12,27,15.50
2014,07,18,12,28,15.30
2014,07,18,12,29,14.60
2014,07,18,12,30,14.10
2014,07,18,12,31,12.90
2014,07,18,12,32,12.90
2014,07,18,12,33,13.00
2014,07,18,12,34,13.20
2014,07,18,12,35,12.70
2014,07,18,12,36,12.20
2014,07,18,12,37,11.40
2014,07,18,12,38,10.90
2014,07,18,12,39,8.30
2014,07,18,12,40,8.50
2014,07,18,12,41,9.40
2014,07,18,12,42,10.10
2014,07,18,12,43,10.60
2014,07,18,12,44,11.00
2014,07,18,12,45,11.00
2014,07,18,12,46,10.90
2014,07,18,12,47,11.60
2014,07,18,12,48,11.50
2014,07,18,12,49,12.30
2014,07,18,12,50,12.40
2014,07,18,12,51,12.30
2014,07,18,12,52,12.30
2014,07,18,12,53,12.90
2014,07,18,12,54,12.70
2014,07,18,12,55,12.60
2014,07,18,12,56,12.30
2014,07,18,12,57,11.70
2014,07,18,12,58,10.90
2014,07,18,12,59,10.70
2014,07,18,13,00,10.50
2014,07,18,13,01,10.50
2014,07,18,13,02,10.20
2014,07,18,13,03,10.10
2014,07,18,13,04,10.80
2014,07,18,13,05,10.60
2014,07,18,13,06,11.50
2014,07,18,13,07,11.60
2014,07,18,13,08,11.40
2014,07,18,13,09,11.20
2014,07,18,13,10,12.40
2014,07,18,13,11,13.00
2014,07,18,13,12,12.90
2014,07,18,13,13,12.70
2014,07,18,13,14,12.90
2014,07,18,13,15,12.70
2014,07,18,13,16,12.40
2014,07,18,13,17,12.90
2014,07,18,13,18,12.50
2014,07,18,13,19,12.60
2014,07,18,13,20,11.80
2014,07,18,13,21,12.20
2014,07,18,13,22,11.90
2014,07,18,13,23,13.00
2014,07,18,13,24,11.90
2014,07,18,13,25,11.00
2014,07,18,13,26,11.00
2014,07,18,13,27,11.30
2014,07,18,13,28,11.40
2014,07,18,13,29,11.70
2014,07,18,13,30,11.60
2014,07,18,13,31,11.80
2014,07,18,13,32,12.20
2014,07,18,13,33,12.70
2014,07,18,13,34,12.60
2014,07,18,13,35,12.90
2014,07,18,13,36,12.50
2014,07,18,13,37,12.60
2014,07,18,13,38,12.80
2014,07,18,13,39,13.20
2014,07,18,13,40,12.90
2014,07,18,13,41,12.90
2014,07,18,13,42,12.90
2014,07,18,13,43,12.20
2014,07,18,13,44,10.70
2014,07,18,13,45,10.60
2014,07,18,13,46,10.90
2014,07,18,13,47,10.60
2014,07,18,13,48,10.90
2014,07,18,13,49,11.10
2014,07,18,13,50,10.90
2014,07,18,13,51,11.40
2014,07,18,13,52,11.70
2014,07,18,13,53,11.40
2014,07,18,13,54,11.10
2014,07,18,13,55,11.10
2014,07,18,13,56,10.80
2014,07,18,13,57,10.90
2014,07,18,13,58,11.20
2014,07,18,13,59,10.90
2014,07,18,14,00,12.20
2014,07,18,14,01,12.70
2014,07,18,14,02,13.30
2014,07,18,14,03,14.20
2014,07,18,14,04,13.80
2014,07,18,14,05,14.60
2014,07,18,14,06,15.30
2014,07,18,14,07,15.70
2014,07,18,14,08,14.80
2014,07,18,14,09,13.50
2014,07,18,14,10,11.80
2014,07,18,14,11,14.20
2014,07,18,14,12,11.90
2014,07,18,14,13,11.40
2014,07,18,14,14,14.40
2014,07,18,14,15,12.10
2014,07,18,14,16,13.10
2014,07,18,14,17,12.60
2014,07,18,14,18,12.60
2014,07,18,14,19,11.80
2014,07,18,14,20,11.70
2014,07,18,14,21,11.20
2014,07,18,14,22,11.90
2014,07,18,14,23,12.50
2014,07,18,14,24,12.30
2014,07,18,14,25,12.90
2014,07,18,14,26,12.30
2014,07,18,14,27,11.80
2014,07,18,14,28,11.70
2014,07,18,14,29,10.60
2014,07,18,14,30,10.60
2014,07,18,14,31,11.40
2014,07,18,14,32,12.50
2014,07,18,14,33,13.10
2014,07,18,14,34,13.60
2014,07,18,14,35,13.60
2014,07,18,14,36,13.50
2014,07,18,14,37,13.60
2014,07,18,14,38,14.30
2014,07,18,14,39,15.90
2014,07,18,14,40,17.90
2014,07,18,14,41,19.20
2014,07,18,14,42,19.40
2014,07,18,14,43,18.90
2014,07,18,14,44,18.00
2014,07,18,14,45,20.10
2014,07,18,14,46,22.60
2014,07,18,14,47,22.90
2014,07,18,14,48,23.30
2014,07,18,14,49,23.10
2014,07,18,14,50,22.50
2014,07,18,14,51,22.20
2014,07,18,14,52,21.90
2014,07,18,14,53,20.80
2014,07,18,14,54,20.80
2014,07,18,14,55,20.90
2014,07,18,14,56,21.20
2014,07,18,14,57,19.40
2014,07,18,14,58,18.80
2014,07,18,14,59,18.60
2014,07,18,15,00,18.20
2014,07,18,15,01,20.00
2014,07,18,15,02,19.10
2014,07,18,15,03,18.90
2014,07,18,15,04,19.50
2014,07,18,15,05,15.80
2014,07,18,15,06,15.50
2014,07,18,15,07,15.70
2014,07,18,15,08,16.80
2014,07,18,15,09,17.10
2014,07,18,15,10,16.00
2014,07,18,15,11,16.30
2014,07,18,15,12,14.80
2014,07,18,15,13,17.20
2014,07,18,15,14,18.20
2014,07,18,15,15,17.10
2014,07,18,15,16,19.20
2014,07,18,15,17,18.40
2014,07,18,15,18,17.50
2014,07,18,15,19,17.40
2014,07,18,15,20,21.90
2014,07,18,15,21,28.20
2014,07,18,15,22,30.30
2014,07,18,15,23,28.70
2014,07,18,15,24,29.40
2014,07,18,15,25,28.00
2014,07,18,15,26,26.00
2014,07,18,15,27,28.40
2014,07,18,15,28,28.40
2014,07,18,15,29,29.50
2014,07,18,15,30,30.40
2014,07,18,15,31,29.90
2014,07,18,15,32,29.80
2014,07,18,15,33,31.20
2014,07,18,15,34,29.90
2014,07,18,15,35,31.80
2014,07,18,15,36,30.30
2014,07,18,15,37,30.40
2014,07,18,15,38,30.10
2014,07,18,15,39,29.50
2014,07,18,15,40,29.40
2014,07,18,15,41,28.90
2014,07,18,15,42,28.00
2014,07,18,15,43,29.20
2014,07,18,15,44,29.20
2014,07,18,15,45,29.50
2014,07,18,15,46,32.80
2014,07,18,15,47,34.80
2014,07,18,15,48,33.30
2014,07,18,15,49,33.00
2014,07,18,15,50,33.00
2014,07,18,15,51,32.30
2014,07,18,15,52,36.00
2014,07,18,15,53,34.80
2014,07,18,15,54,33.20
2014,07,18,15,55,34.00
2014,07,18,15,56,35.90
2014,07,18,15,57,36.80
2014,07,18,15,58,35.00
2014,07,18,15,59,33.90
2014,07,18,16,00,32.80
2014,07,18,16,01,30.00
2014,07,18,16,02,28.40
2014,07,18,16,03,28.20
2014,07,18,16,04,24.20
2014,07,18,16,05,24.80
2014,07,18,16,06,29.40
2014,07,18,16,07,34.40
2014,07,18,16,08,37.20
2014,07,18,16,09,38.10
2014,07,18,16,10,39.40
2014,07,18,16,11,40.50
2014,07,18,16,12,39.80
2014,07,18,16,13,37.40
2014,07,18,16,14,34.90
2014,07,18,16,15,34.00
2014,07,18,16,16,34.80
2014,07,18,16,17,35.00
2014,07,18,16,18,35.50
2014,07,18,16,19,37.50
2014,07,18,16,20,36.60
2014,07,18,16,21,36.50
2014,07,18,16,22,39.30
2014,07,18,16,23,38.60
2014,07,18,16,24,37.00
2014,07,18,16,25,38.60
2014,07,18,16,26,38.80
2014,07,18,16,27,38.50
2014,07,18,16,28,38.10
2014,07,18,16,29,38.00
2014,07,18,16,30,37.30
2014,07,18,16,31,36.80
2014,07,18,16,32,36.70
2014,07,18,16,33,35.00
2014,07,18,16,34,32.80
2014,07,18,16,35,32.80
2014,07,18,16,36,31.80
2014,07,18,16,37,30.10
2014,07,18,16,38,29.00
2014,07,18,16,39,28.60
2014,07,18,16,40,29.70
2014,07,18,16,41,29.50
2014,07,18,16,42,28.40
2014,07,18,16,43,26.60
2014,07,18,16,44,29.90
2014,07,18,16,45,31.90
2014,07,18,16,46,30.40
2014,07,18,16,47,32.20
2014,07,18,16,48,34.60
2014,07,18,16,49,37.30
2014,07,18,16,50,39.90
2014,07,18,16,51,39.10
2014,07,18,16,52,42.60
2014,07,18,16,53,43.90
2014,07,18,16,54,43.00
2014,07,18,16,55,44.70
2014,07,18,16,56,45.40
2014,07,18,16,57,45.00
2014,07,18,16,58,46.00
2014,07,18,16,59,44.90
2014,07,18,17,00,43.60
2014,07,18,17,01,42.30
2014,07,18,17,02,42.70
2014,07,18,17,03,44.10
2014,07,18,17,04,44.00
2014,07,18,17,05,46.10
2014,07,18,17,06,46.90
2014,07,18,17,07,47.30
2014,07,18,17,08,42.60
2014,07,18,17,09,39.10
2014,07,18,17,10,37.00
2014,07,18,17,11,43.70
2014,07,18,17,12,50.70
2014,07,18,17,13,52.30
2014,07,18,17,14,51.30
2014,07,18,17,15,52.70
2014,07,18,17,16,53.20
2014,07,18,17,17,53.60
2014,07,18,17,18,53.80
2014,07,18,17,19,56.80
2014,07,18,17,20,54.60
2014,07,18,17,21,55.20
2014,07,18,17,22,52.30
2014,07,18,17,23,52.70
2014,07,18,17,24,56.30
2014,07,18,17,25,56.30
2014,07,18,17,26,56.30
2014,07,18,17,27,56.30
2014,07,18,17,28,56.30
2014,07,18,17,29,68.60
2014,07,18,17,30,69.90
2014,07,18,17,31,69.70